Location: Kvarnån
(66.4000°N, 22.2667°E)
Time: 21:03:38
(UTC+00:00)

Cosmos 2016 Rocket - Pass Details

Date: 15 October 2024
Orbit: 947 x 999 km, 83.0° (Epoch: 06 November)

Event Time Altitude Azimuth Distance (km) Brightness Sun altitude
Rises 23:31:04 0° 341° (NNW) 3,725 7.7 -31.2°
Reaches altitude 10° 23:33:36 10° 342° (NNW) 2,777 6.9 -31.1°
Enters shadow 23:39:49 84° 22° (NNE) 1,016 4.0 -30.8°
